EW7164 Weather Reports


time (UTC)temp
C
wind
direction
speed
KPH
gust
KPH
rain 1hr
cm
rain 24hr
cm
rain mn
cm
humidity
%
barometer
mb
20260831011525 16 315 4.8 8.0 0.25 0.33 0.33 91 1016.5
20260831010624 16 270 3.2 3.2 0.28 0.33 0.33 91 1016.6
20260831005623 16 308 6.4 8.0 0.30 0.33 0.33 89 1016.7
20260831005525 16 292 3.2 6.4 0.30 0.33 0.33 90 1016.5
20260831004525 17 317 9.7 12.9 0.23 0.25 0.25 89 1016.7
20260831002624 17 283 16.1 20.9 0.10 0.13 0.13 87 1016.3
20260831001624 17 267 20.9 30.6 0.08 0.08 0.08 85 1015.8
20260831001525 17 272 22.5 29.0 0.08 0.08 0.08 84 1015.8
20260831000525 18 263 30.6 40.2 0.05 0.05 0.05 81 1015.6
20260830235525 18 267 17.7 27.4 0.03 0.03 0.03 80 1015.3
20260830234524 18 252 17.7 22.5 0.03 0.03 0.03 81 1015.2
20260830233526 18 250 19.3 29.0 0.03 0.03 0.03 79 1014.9
20260830232524 18 260 16.1 27.4 0.00 0.00 0.00 78 1015.0
20260830231525 20 252 16.1 22.5 0.00 0.00 0.00 74 1014.7
20260830230623 20 256 22.5 29.0 0.00 0.00 0.00 72 1014.5
20260830225625 21 254 20.9 32.2 0.00 0.00 0.00 67 1014.2
20260830225524 21 242 25.7 35.4 0.00 0.00 0.00 67 1014.2
20260830225423 21 249 19.3 27.4 0.00 0.00 0.00 67 1014.2
20260830224522 21 250 25.7 33.8 0.00 0.00 0.00 65 1014.2
20260830223525 21 264 22.5 30.6 0.00 0.00 0.00 65 1014.2
20260830221624 21 264 16.1 20.9 0.00 0.00 0.00 64 1014.1
20260830220625 21 252 22.5 27.4 0.00 0.00 0.00 63 1013.9
20260830215626 21 240 27.4 35.4 0.00 0.00 0.00 63 1013.7
20260830214624 21 235 24.1 33.8 0.00 0.00 0.00 62 1014.0
20260830214524 21 259 22.5 33.8 0.00 0.00 0.00 62 1013.9
20260830213525 21 242 19.3 27.4 0.00 0.00 0.00 62 1013.9
20260830212524 21 248 29.0 38.6 0.00 0.00 0.00 62 1013.9
20260830211524 21 251 35.4 46.7 0.00 0.00 0.00 63 1013.9
20260830211425 21 233 20.9 35.4 0.00 0.00 0.00 63 1014.0
20260830210425 21 240 22.5 35.4 0.00 0.00 0.00 63 1014.4
20260830204424 21 240 24.1 30.6 0.00 0.00 0.00 63 1014.2
20260830203426 21 240 14.5 20.9 0.00 0.00 0.00 63 1014.4
20260830203323 21 253 17.7 25.7 0.00 0.00 0.00 62 1014.3
20260830201225 22 231 24.1 33.8 0.00 0.00 0.00 62 1014.5
20260830200323 22 240 24.1 37.0 0.00 0.00 0.00 60 1014.7
20260830195325 22 256 20.9 30.6 0.00 0.00 0.00 60 1014.8
20260830195226 22 248 14.5 19.3 0.00 0.00 0.00 60 1014.8
20260830195125 22 238 19.3 30.6 0.00 0.00 0.00 60 1014.8
20260830194125 22 235 24.1 33.8 0.00 0.00 0.00 61 1014.8
20260830193224 21 228 20.9 33.8 0.00 0.00 0.00 61 1014.9
20260830191223 22 221 16.1 20.9 0.00 0.00 0.00 60 1015.3
20260830190224 22 249 16.1 19.3 0.00 0.00 0.00 60 1015.3
20260830185224 22 233 12.9 24.1 0.00 0.00 0.00 61 1015.4
20260830184224 22 245 12.9 19.3 0.00 0.00 0.00 61 1015.6
20260830184123 22 252 14.5 17.7 0.00 0.00 0.00 61 1015.6
20260830183223 22 249 12.9 22.5 0.00 0.00 0.00 60 1015.7
20260830182223 22 244 19.3 25.7 0.00 0.00 0.00 60 1015.7
20260830181226 22 250 14.5 24.1 0.00 0.00 0.00 59 1015.9
20260830180225 22 258 14.5 17.7 0.00 0.00 0.00 58 1015.8
20260830175323 23 264 14.5 20.9 0.00 0.00 0.00 56 1015.9
20260830173323 23 238 12.9 22.5 0.00 0.00 0.00 55 1015.9
20260830172323 23 264 16.1 30.6 0.00 0.00 0.00 55 1015.9
20260830170325 23 251 14.5 22.5 0.00 0.00 0.00 53 1016.1
20260830165326 23 256 14.5 19.3 0.00 0.00 0.00 54 1015.9
20260830164324 24 253 11.3 16.1 0.00 0.00 0.00 52 1016.1
20260830163422 24 263 14.5 19.3 0.00 0.00 0.00 52 1016.2
20260830162427 24 258 24.1 37.0 0.00 0.00 0.00 51 1016.3
20260830162322 24 257 19.3 32.2 0.00 0.00 0.00 52 1016.4
20260830160324 23 256 25.7 33.8 0.00 0.00 0.00 53 1016.6
20260830154326 23 247 17.7 22.5 0.00 0.00 0.00 53 1017.1
20260830153422 23 244 14.5 19.3 0.00 0.00 0.00 53 1017.1
20260830153325 23 254 11.3 14.5 0.00 0.00 0.00 53 1017.2
20260830151325 22 232 12.9 20.9 0.00 0.00 0.00 54 1017.6
20260830150326 22 259 24.1 29.0 0.00 0.00 0.00 55 1017.6
20260830145423 22 259 17.7 27.4 0.00 0.00 0.00 53 1017.7
20260830144425 23 256 16.1 24.1 0.00 0.00 0.00 52 1017.8
20260830143524 22 259 17.7 25.7 0.00 0.00 0.00 51 1017.9
20260830142525 22 260 11.3 19.3 0.00 0.00 0.00 52 1017.8
20260830141526 22 258 16.1 22.5 0.00 0.00 0.00 52 1017.8
20260830140623 22 262 14.5 19.3 0.00 0.00 0.00 50 1017.9
20260830135623 22 242 19.3 27.4 0.00 0.00 0.00 52 1017.9
20260830134623 21 266 14.5 24.1 0.00 0.00 0.00 55 1018.0
20260830133723 21 244 14.5 20.9 0.00 0.00 0.00 54 1018.1
20260830131823 21 260 27.4 33.8 0.00 0.00 0.00 54 1018.0
20260830130824 21 252 16.1 20.9 0.00 0.00 0.00 53 1018.1
20260830125825 21 243 11.3 16.1 0.00 0.00 0.00 54 1018.1
20260830125726 21 243 11.3 14.5 0.00 0.00 0.00 54 1018.2
20260830124823 21 239 17.7 22.5 0.00 0.00 0.00 54 1018.2
20260830123825 21 232 16.1 24.1 0.00 0.00 0.00 54 1018.1
20260830122825 21 244 12.9 22.5 0.00 0.00 0.00 54 1018.2
20260830121823 20 236 17.7 27.4 0.00 0.00 0.00 55 1018.4
20260830120824 20 240 16.1 24.1 0.00 0.00 0.00 55 1018.5
20260830115825 20 244 17.7 24.1 0.00 0.00 0.00 55 1018.5
20260830113924 20 232 17.7 25.7 0.00 0.00 0.00 56 1018.7
20260830112924 20 247 16.1 27.4 0.00 0.00 0.00 55 1018.6
20260830111924 20 232 20.9 27.4 0.00 0.00 0.00 54 1018.7
20260830111824 20 239 22.5 30.6 0.00 0.00 0.00 54 1018.6
20260830110922 20 245 17.7 25.7 0.00 0.00 0.00 55 1018.8
20260830105924 20 234 22.5 32.2 0.00 0.00 0.00 55 1018.9
20260830105825 20 232 20.9 27.4 0.00 0.00 0.00 55 1018.9
20260830104823 20 235 16.1 22.5 0.00 0.00 0.00 55 1018.9
20260830103824 20 243 19.3 29.0 0.00 0.00 0.00 55 1019.0
20260830102823 20 233 14.5 19.3 0.00 0.00 0.00 53 1019.2
20260830101823 20 238 16.1 22.5 0.00 0.00 0.00 54 1019.4
20260830100824 20 232 14.5 19.3 0.00 0.00 0.00 54 1019.4
20260830095827 19 229 12.9 20.9 0.00 0.00 0.00 54 1019.4
20260830094823 19 237 11.3 12.9 0.00 0.00 0.00 53 1019.3
20260830093824 18 224 14.5 17.7 0.00 0.00 0.00 56 1019.4
20260830092825 18 241 4.8 8.0 0.00 0.00 0.00 56 1019.5
20260830092724 18 234 4.8 8.0 0.00 0.00 0.00 57 1019.5
20260830092624 18 239 8.0 12.9 0.00 0.00 0.00 57 1019.4
20260830091624 18 228 6.4 9.7 0.00 0.00 0.00 59 1019.5
20260830090624 18 232 1.6 4.8 0.00 0.00 0.00 62 1019.7
20260830090526 18 237 1.6 4.8 0.00 0.00 0.00 61 1019.6
20260830085524 18 248 6.4 8.0 0.00 0.00 0.00 60 1019.7
20260830084525 18 240 8.0 9.7 0.00 0.00 0.00 59 1019.8
20260830084423 18 247 9.7 12.9 0.00 0.00 0.00 59 1019.8
20260830083424 19 265 9.7 12.9 0.00 0.00 0.00 57 1019.9
20260830082424 18 217 8.0 17.7 0.00 0.00 0.00 58 1019.6
20260830081523 18 219 8.0 12.9 0.00 0.00 0.00 59 1019.7
20260830080525 18 248 1.6 3.2 0.00 0.00 0.00 58 1019.7
20260830080423 18 227 0.0 3.2 0.00 0.00 0.00 57 1019.6
20260830075423 18 233 3.2 6.4 0.00 0.00 0.00 58 1019.8
20260830073425 18 247 8.0 11.3 0.00 0.00 0.00 60 1019.7
20260830072424 18 247 9.7 11.3 0.00 0.00 0.00 58 1019.9
20260830072324 18 252 8.0 12.9 0.00 0.00 0.00 58 1019.8
20260830071323 17 248 8.0 12.9 0.00 0.00 0.00 66 1019.9
20260830065323 18 225 8.0 11.3 0.00 0.00 0.00 62 1019.9
20260830064423 17 226 6.4 11.3 0.00 0.00 0.00 63 1019.9
20260830062423 18 225 4.8 6.4 0.00 0.00 0.00 64 1020.1
20260830061424 18 253 11.3 12.9 0.00 0.00 0.00 66 1020.2
20260830060424 18 249 12.9 17.7 0.00 0.00 0.00 67 1020.3
20260830055425 18 251 12.9 19.3 0.00 0.00 0.00 68 1020.4
20260830053424 17 248 12.9 16.1 0.00 0.00 0.00 68 1020.4
20260830052425 17 250 14.5 19.3 0.00 0.00 0.00 70 1020.4
20260830050426 17 247 19.3 25.7 0.00 0.00 0.00 65 1020.5
20260830045425 18 249 12.9 17.7 0.00 0.00 0.00 61 1020.6
20260830044425 17 247 12.9 19.3 0.00 0.00 0.00 62 1020.8
20260830043423 17 262 12.9 19.3 0.00 0.00 0.00 62 1020.7
20260830040623 18 244 17.7 24.1 0.00 0.00 0.00 59 1020.6
20260830040525 18 238 14.5 20.9 0.00 0.00 0.00 59 1020.6
20260830035529 18 252 12.9 19.3 0.00 0.00 0.00 58 1020.6
20260830034530 18 249 17.7 25.7 0.00 0.00 0.00 58 1020.7
20260830034428 18 251 17.7 22.5 0.00 0.00 0.00 58 1020.5
20260830033429 18 255 16.1 20.9 0.00 0.00 0.00 57 1020.7
20260830031431 18 242 17.7 27.4 0.00 0.00 0.00 55 1020.7
20260830031328 18 239 19.3 24.1 0.00 0.00 0.00 55 1020.5
20260830025427 18 242 16.1 22.5 0.00 0.00 0.00 55 1020.6
20260830024429 18 248 19.3 24.1 0.00 0.00 0.00 56 1020.6
20260830023428 18 246 16.1 27.4 0.00 0.00 0.00 57 1020.6
20260830023327 18 250 14.5 20.9 0.00 0.00 0.00 57 1020.7
20260830022331 18 244 12.9 20.9 0.00 0.00 0.00 57 1020.9
20260830021429 18 235 16.1 22.5 0.00 0.00 0.00 58 1020.7
20260830020429 18 243 19.3 24.1 0.00 0.00 0.00 57 1020.7
20260830015430 18 243 14.5 19.3 0.00 0.00 0.00 58 1020.8